Location: Tierra del Sol
(32.6128°N, 116.3319°W)
Time: 00:44:41
(UTC-07:00)

Hubble Space Telescope - Pass Details

Date: 08 October 2017
Orbit: 537 x 541 km, 28.5° (Epoch: 22 October)

Event Time Altitude Azimuth Distance (km) Brightness Sun altitude
Exits shadow 05:37:55 23° 241° (WSW) 1,161 1.9 -14.8°
Maximum altitude 05:39:49 36° 191° (S) 857 1.7 -14.4°
Drops below altitude 10° 05:43:38 10° 124° (SE) 1,787 4.3 -13.6°
Sets 05:46:00 0° 116° (ESE) 2,678 5.5 -13.1°
